KAR810 UNOO-ULLI

Flight info

Callsign KAR810
Flight time 3h 36m
Altitude 34000
Route BUNET6D/25 BUNET B236 LUKAS A305 TINRI N987 GIKES P982 ANDAT M60 APSAS L259 PRIBI P979 BEPOL BEPOL1V/28L
Aircraft B739/M-SDE2E3FGHIRWXY/LB1

Departure

Time 2026-04-25 11:21
Airport Omsk Central Airport (UNOO)

Arrival

Time 2026-04-25 14:58
Airport Pulkovo Airport (ULLI)
Time Latitude Longitude Altitude Speed Heading
2026-04-25 11:12 54.96334 73.31990 297 ft 0 kts 137°
2026-04-25 11:16 54.96330 73.31997 298 ft 3 kts 137°
2026-04-25 11:17 54.96324 73.32007 300 ft 2 kts 137°
2026-04-25 11:17 54.96306 73.32037 297 ft 6 kts 133°
2026-04-25 11:17 54.96299 73.32119 299 ft 9 kts 54°
2026-04-25 11:17 54.96360 73.32204 300 ft 13 kts 35°
2026-04-25 11:18 54.96456 73.32268 298 ft 17 kts 42°
2026-04-25 11:18 54.96496 73.32476 298 ft 20 kts 77°
2026-04-25 11:18 54.96527 73.32710 298 ft 20 kts 77°
2026-04-25 11:18 54.96557 73.32936 298 ft 19 kts 77°
2026-04-25 11:19 54.96635 73.33042 300 ft 12 kts 353°
2026-04-25 11:19 54.96677 73.33025 297 ft 0 kts 347°
2026-04-25 11:20 54.96706 73.33014 298 ft 10 kts 347°
2026-04-25 11:20 54.96808 73.32973 297 ft 20 kts 347°
2026-04-25 11:20 54.96936 73.32917 298 ft 13 kts 336°
2026-04-25 11:20 54.96948 73.32777 304 ft 13 kts 256°
2026-04-25 11:21 54.96892 73.32359 308 ft 70 kts 257°
2026-04-25 11:21 54.96729 73.31142 306 ft 133 kts 257°
2026-04-25 11:21 54.96489 73.29282 364 ft 178 kts 258°
2026-04-25 11:21 54.96222 73.27200 1123 ft 167 kts 255°
2026-04-25 11:22 54.95969 73.25295 2055 ft 162 kts 254°
2026-04-25 11:22 54.95799 73.24001 2448 ft 171 kts 256°
2026-04-25 11:22 54.95413 73.21088 2818 ft 199 kts 255°
2026-04-25 11:22 54.95076 73.18652 3079 ft 214 kts 255°
2026-04-25 11:23 54.94721 73.16062 3455 ft 227 kts 255°
2026-04-25 11:23 54.94327 73.13212 3406 ft 259 kts 255°
2026-04-25 11:23 54.93900 73.10101 3953 ft 263 kts 256°
2026-04-25 11:23 54.93497 73.07068 4992 ft 250 kts 255°
2026-04-25 11:24 54.93171 73.04238 6158 ft 236 kts 263°
2026-04-25 11:24 54.93485 73.01373 6698 ft 252 kts 289°
2026-04-25 11:24 54.94473 72.98785 7290 ft 263 kts 306°
2026-04-25 11:24 54.95882 72.96678 7952 ft 270 kts 315°
2026-04-25 11:25 54.97400 72.94675 8498 ft 276 kts 315°
2026-04-25 11:25 54.98905 72.92686 9236 ft 274 kts 315°
2026-04-25 11:25 55.00420 72.90661 9890 ft 276 kts 314°
2026-04-25 11:25 55.01970 72.88565 10156 ft 292 kts 314°
2026-04-25 11:26 55.03621 72.86314 10300 ft 310 kts 315°
2026-04-25 11:26 55.05364 72.83935 10456 ft 327 kts 315°
2026-04-25 11:26 55.07189 72.81447 10743 ft 338 kts 315°
2026-04-25 11:26 55.09057 72.78907 11248 ft 342 kts 315°
2026-04-25 11:27 55.10939 72.76342 11838 ft 344 kts 315°
2026-04-25 11:27 55.12829 72.73756 12465 ft 345 kts 314°
2026-04-25 11:27 55.14083 72.72035 12860 ft 347 kts 314°
2026-04-25 11:27 55.15354 72.70245 13289 ft 346 kts 310°
2026-04-25 11:28 55.17219 72.65903 14039 ft 336 kts 293°
2026-04-25 11:28 55.18355 72.62317 14586 ft 338 kts 292°
2026-04-25 11:28 55.19485 72.58685 15141 ft 341 kts 292°
2026-04-25 11:28 55.20624 72.55016 15700 ft 344 kts 292°
2026-04-25 11:29 55.21779 72.51309 16191 ft 349 kts 292°
2026-04-25 11:29 55.22951 72.47563 16724 ft 353 kts 292°
2026-04-25 11:29 55.24137 72.43782 17285 ft 355 kts 292°
2026-04-25 11:29 55.25337 72.39964 17816 ft 359 kts 292°
2026-04-25 11:30 55.26547 72.36114 18293 ft 362 kts 292°
2026-04-25 11:30 55.27765 72.32238 18783 ft 364 kts 292°
2026-04-25 11:30 55.28994 72.28326 19283 ft 366 kts 292°
2026-04-25 11:30 55.30224 72.24404 19767 ft 368 kts 292°
2026-04-25 11:31 55.31461 72.20451 20228 ft 371 kts 292°
2026-04-25 11:31 55.32706 72.16467 20710 ft 373 kts 292°
2026-04-25 11:31 55.33956 72.12460 21192 ft 375 kts 292°
2026-04-25 11:31 55.35212 72.08428 21657 ft 377 kts 292°
2026-04-25 11:32 55.36476 72.04361 22085 ft 381 kts 292°
2026-04-25 11:32 55.37748 72.00260 22514 ft 383 kts 292°
2026-04-25 11:32 55.39025 71.96138 22953 ft 385 kts 292°
2026-04-25 11:32 55.40308 71.91990 23341 ft 387 kts 292°
2026-04-25 11:33 55.41585 71.87852 23620 ft 391 kts 292°
2026-04-25 11:33 55.42884 71.83639 23971 ft 392 kts 292°
2026-04-25 11:33 55.44202 71.79355 24336 ft 393 kts 292°
2026-04-25 11:33 55.45489 71.75168 24654 ft 396 kts 292°
2026-04-25 11:34 55.46804 71.70873 24957 ft 400 kts 292°
2026-04-25 11:34 55.48127 71.66550 25349 ft 401 kts 292°
2026-04-25 11:34 55.49450 71.62221 25764 ft 402 kts 292°
2026-04-25 11:34 55.50779 71.57863 26145 ft 403 kts 292°
2026-04-25 11:35 55.52108 71.53494 26423 ft 406 kts 292°
2026-04-25 11:35 55.53447 71.49084 26718 ft 409 kts 292°
2026-04-25 11:35 55.54792 71.44649 27074 ft 410 kts 292°
2026-04-25 11:35 55.56139 71.40198 27415 ft 412 kts 292°
2026-04-25 11:36 55.57491 71.35721 27704 ft 414 kts 292°
2026-04-25 11:36 55.58851 71.31212 28011 ft 416 kts 292°
2026-04-25 11:36 55.60215 71.26683 28387 ft 417 kts 292°
2026-04-25 11:36 55.61572 71.22168 28858 ft 414 kts 291°
2026-04-25 11:37 55.62919 71.17669 29323 ft 413 kts 291°
2026-04-25 11:37 55.64258 71.13175 29734 ft 412 kts 291°
2026-04-25 11:37 55.65589 71.08698 30106 ft 411 kts 291°
2026-04-25 11:37 55.66916 71.04223 30470 ft 410 kts 291°
2026-04-25 11:38 55.68238 70.99755 30773 ft 410 kts 291°
2026-04-25 11:38 55.69559 70.95283 31095 ft 409 kts 291°
2026-04-25 11:38 55.70875 70.90820 31439 ft 407 kts 291°
2026-04-25 11:38 55.72167 70.86437 31772 ft 406 kts 291°
2026-04-25 11:39 55.73472 70.81996 32054 ft 406 kts 291°
2026-04-25 11:39 55.74777 70.77547 32334 ft 406 kts 290°
2026-04-25 11:39 55.76077 70.73107 32660 ft 404 kts 290°
2026-04-25 11:39 55.77371 70.68682 32964 ft 403 kts 290°
2026-04-25 11:40 55.78663 70.64250 33183 ft 404 kts 290°
2026-04-25 11:40 55.79954 70.59813 33425 ft 404 kts 290°
2026-04-25 11:40 55.81245 70.55372 33724 ft 403 kts 290°
2026-04-25 11:40 55.82531 70.50936 33763 ft 406 kts 290°
2026-04-25 11:41 55.85112 70.42012 33779 ft 405 kts 290°
2026-04-25 11:41 55.87674 70.33126 33782 ft 402 kts 289°
2026-04-25 11:42 55.90223 70.24248 33778 ft 401 kts 289°
2026-04-25 11:42 55.92753 70.15395 33776 ft 401 kts 289°
2026-04-25 11:43 55.95262 70.06583 33782 ft 401 kts 289°
2026-04-25 11:43 55.97786 69.97687 33776 ft 402 kts 289°
2026-04-25 11:44 56.00309 69.88759 33783 ft 404 kts 289°
2026-04-25 11:44 56.02838 69.79778 33771 ft 405 kts 289°
2026-04-25 11:45 56.05370 69.70753 33775 ft 407 kts 289°
2026-04-25 11:45 56.07907 69.61676 33771 ft 408 kts 289°
2026-04-25 11:46 56.10713 69.52762 33768 ft 413 kts 294°
2026-04-25 11:46 56.13686 69.43955 33763 ft 412 kts 293°
2026-04-25 11:47 56.16347 69.34933 33765 ft 407 kts 289°
2026-04-25 11:47 56.18825 69.25808 33755 ft 406 kts 288°
2026-04-25 11:48 56.21297 69.16681 33758 ft 406 kts 289°
2026-04-25 11:48 56.23777 69.07568 33746 ft 406 kts 289°
2026-04-25 11:49 56.26260 68.98451 33757 ft 406 kts 289°
2026-04-25 11:49 56.28722 68.89382 33748 ft 406 kts 288°
2026-04-25 11:50 56.31200 68.80223 33752 ft 407 kts 288°
2026-04-25 11:50 56.33675 68.71036 33746 ft 408 kts 288°
2026-04-25 11:51 56.36154 68.61794 33753 ft 410 kts 288°
2026-04-25 11:51 56.38637 68.52501 33748 ft 412 kts 288°
2026-04-25 11:52 56.41127 68.43141 33752 ft 414 kts 288°
2026-04-25 11:52 56.43621 68.33731 33752 ft 417 kts 288°
2026-04-25 11:53 56.46105 68.24319 33753 ft 419 kts 287°
2026-04-25 11:53 56.48609 68.14794 33746 ft 420 kts 287°
2026-04-25 11:54 56.51118 68.05207 33752 ft 422 kts 287°
2026-04-25 11:55 56.54878 67.90767 33746 ft 423 kts 287°
2026-04-25 11:55 56.57377 67.81115 33755 ft 423 kts 287°
2026-04-25 11:56 56.59870 67.71447 33746 ft 422 kts 287°
2026-04-25 11:56 56.62347 67.61797 33741 ft 421 kts 287°
2026-04-25 11:57 56.64813 67.52152 33746 ft 420 kts 287°
2026-04-25 11:57 56.67261 67.42529 33748 ft 419 kts 287°
2026-04-25 11:58 56.69696 67.32921 33741 ft 417 kts 287°
2026-04-25 11:58 56.72113 67.23338 33747 ft 416 kts 287°
2026-04-25 11:59 56.74514 67.13778 33744 ft 415 kts 286°
2026-04-25 11:59 56.76905 67.04220 33745 ft 414 kts 286°
2026-04-25 12:00 56.80448 66.89971 33740 ft 412 kts 286°
2026-04-25 12:01 56.83984 66.75668 33751 ft 412 kts 285°
2026-04-25 12:01 56.86258 66.66077 33739 ft 411 kts 284°
2026-04-25 12:02 56.89610 66.51623 33741 ft 412 kts 284°
2026-04-25 12:02 56.91845 66.41977 33744 ft 412 kts 284°
2026-04-25 12:03 56.94082 66.32299 33749 ft 413 kts 284°
2026-04-25 12:03 56.96315 66.22597 33748 ft 414 kts 284°
2026-04-25 12:04 56.98548 66.12854 33750 ft 415 kts 283°
2026-04-25 12:04 57.00779 66.03086 33750 ft 415 kts 283°
2026-04-25 12:05 57.03012 65.93314 33748 ft 416 kts 283°
2026-04-25 12:05 57.05244 65.83506 33735 ft 416 kts 283°
2026-04-25 12:06 57.07465 65.73700 33737 ft 416 kts 283°
2026-04-25 12:06 57.09469 65.64807 33730 ft 416 kts 283°
2026-04-25 12:07 57.11678 65.54962 33728 ft 416 kts 283°
2026-04-25 12:07 57.13878 65.45115 33727 ft 416 kts 283°
2026-04-25 12:08 57.16157 65.35282 33713 ft 424 kts 289°
2026-04-25 12:08 57.19706 65.26332 33714 ft 446 kts 306°
2026-04-25 12:09 57.24262 65.18431 33727 ft 450 kts 308°
2026-04-25 12:09 57.28873 65.10579 33734 ft 451 kts 307°
2026-04-25 12:10 57.33456 65.02615 33725 ft 453 kts 307°
2026-04-25 12:10 57.38031 64.94567 33725 ft 454 kts 307°
2026-04-25 12:11 57.42617 64.86464 33723 ft 456 kts 307°
2026-04-25 12:11 57.47221 64.78309 33722 ft 458 kts 307°
2026-04-25 12:12 57.51052 64.71498 33719 ft 459 kts 307°
2026-04-25 12:12 57.56407 64.61918 33711 ft 460 kts 307°
2026-04-25 12:13 57.61022 64.53625 33701 ft 461 kts 307°
2026-04-25 12:13 57.65638 64.45304 33698 ft 461 kts 307°
2026-04-25 12:14 57.69472 64.38368 33696 ft 461 kts 307°
2026-04-25 12:14 57.74854 64.28595 33689 ft 461 kts 307°
2026-04-25 12:15 57.79452 64.20213 33680 ft 461 kts 307°
2026-04-25 12:15 57.84032 64.11809 33676 ft 460 kts 306°
2026-04-25 12:16 57.87758 64.04698 33678 ft 459 kts 305°
2026-04-25 12:16 57.92921 63.94688 33673 ft 459 kts 305°
2026-04-25 12:17 57.96649 63.87464 33667 ft 459 kts 306°
2026-04-25 12:17 58.01099 63.78838 33668 ft 459 kts 306°
2026-04-25 12:18 58.05547 63.70187 33663 ft 459 kts 306°
2026-04-25 12:18 58.09963 63.61568 33658 ft 459 kts 306°
2026-04-25 12:19 58.16545 63.48343 33650 ft 458 kts 304°
2026-04-25 12:20 58.20854 63.39548 33651 ft 458 kts 305°
2026-04-25 12:20 58.25198 63.30675 33649 ft 459 kts 305°
2026-04-25 12:21 58.29541 63.21785 33641 ft 459 kts 305°
2026-04-25 12:21 58.33893 63.12847 33636 ft 459 kts 305°
2026-04-25 12:22 58.38231 63.03900 33633 ft 460 kts 305°
2026-04-25 12:22 58.42563 62.94929 33634 ft 460 kts 305°
2026-04-25 12:23 58.46892 62.85928 33626 ft 460 kts 305°
2026-04-25 12:23 58.51186 62.76970 33629 ft 460 kts 305°
2026-04-25 12:24 58.55446 62.67836 33621 ft 458 kts 302°
2026-04-25 12:24 58.59441 62.58368 33621 ft 456 kts 301°
2026-04-25 12:25 58.63386 62.48825 33620 ft 457 kts 301°
2026-04-25 12:25 58.67355 62.39287 33619 ft 457 kts 301°
2026-04-25 12:26 58.71334 62.29749 33614 ft 457 kts 301°
2026-04-25 12:26 58.75307 62.20202 33614 ft 457 kts 301°
2026-04-25 12:27 58.79274 62.10624 33604 ft 457 kts 301°
2026-04-25 12:27 58.83228 62.01039 33605 ft 456 kts 301°
2026-04-25 12:28 58.87172 61.91435 33614 ft 456 kts 301°
2026-04-25 12:28 58.91108 61.81810 33610 ft 456 kts 301°
2026-04-25 12:29 58.95010 61.72236 33613 ft 456 kts 301°
2026-04-25 12:29 58.98533 61.62194 33611 ft 444 kts 288°
2026-04-25 12:30 59.00382 61.51016 33612 ft 430 kts 274°
2026-04-25 12:30 59.01454 61.39603 33612 ft 430 kts 274°
2026-04-25 12:31 59.02506 61.28173 33605 ft 431 kts 274°
2026-04-25 12:31 59.03582 61.16698 33616 ft 432 kts 274°
2026-04-25 12:32 59.04667 61.05218 33606 ft 433 kts 274°
2026-04-25 12:32 59.05750 60.93688 33614 ft 434 kts 274°
2026-04-25 12:33 59.06823 60.82151 33601 ft 434 kts 274°
2026-04-25 12:33 59.07887 60.70590 33606 ft 435 kts 274°
2026-04-25 12:34 59.08942 60.59008 33605 ft 435 kts 274°
2026-04-25 12:34 59.09980 60.47483 33604 ft 436 kts 274°
2026-04-25 12:35 59.11016 60.35858 33603 ft 436 kts 274°
2026-04-25 12:35 59.12043 60.24222 33601 ft 436 kts 274°
2026-04-25 12:36 59.13059 60.12574 33596 ft 436 kts 274°
2026-04-25 12:36 59.14066 60.00914 33597 ft 436 kts 274°
2026-04-25 12:37 59.15061 59.89254 33593 ft 437 kts 274°
2026-04-25 12:37 59.16047 59.77569 33593 ft 437 kts 274°
2026-04-25 12:38 59.17023 59.65878 33589 ft 437 kts 274°
2026-04-25 12:38 59.17988 59.54181 33588 ft 437 kts 274°
2026-04-25 12:39 59.18944 59.42462 33590 ft 437 kts 274°
2026-04-25 12:39 59.19889 59.30738 33590 ft 438 kts 274°
2026-04-25 12:40 59.20819 59.19071 33593 ft 438 kts 274°
2026-04-25 12:40 59.21747 59.07292 33586 ft 439 kts 274°
2026-04-25 12:41 59.22665 58.95497 33585 ft 440 kts 274°
2026-04-25 12:41 59.23573 58.83682 33589 ft 440 kts 274°
2026-04-25 12:42 59.24472 58.71833 33576 ft 441 kts 274°
2026-04-25 12:42 59.25362 58.59966 33585 ft 442 kts 274°
2026-04-25 12:43 59.26243 58.48069 33571 ft 442 kts 274°
2026-04-25 12:43 59.27543 58.30212 33570 ft 442 kts 274°
2026-04-25 12:44 59.28397 58.18301 33565 ft 442 kts 274°
2026-04-25 12:45 59.29658 58.00445 33565 ft 441 kts 274°
2026-04-25 12:45 59.30905 57.82614 33555 ft 441 kts 274°
2026-04-25 12:46 59.31724 57.70731 33551 ft 440 kts 274°
2026-04-25 12:46 59.32531 57.58855 33543 ft 440 kts 274°
2026-04-25 12:47 59.33321 57.47061 33547 ft 439 kts 274°
2026-04-25 12:47 59.34104 57.35202 33542 ft 439 kts 274°
2026-04-25 12:48 59.34876 57.23346 33530 ft 439 kts 274°
2026-04-25 12:48 59.35639 57.11483 33530 ft 438 kts 274°
2026-04-25 12:49 59.36311 56.99620 33528 ft 438 kts 272°
2026-04-25 12:49 59.36903 56.87733 33525 ft 438 kts 272°
2026-04-25 12:50 59.37487 56.75856 33518 ft 438 kts 272°
2026-04-25 12:50 59.38072 56.63964 33521 ft 438 kts 272°
2026-04-25 12:51 59.38652 56.52056 33520 ft 438 kts 272°
2026-04-25 12:51 59.39221 56.40167 33525 ft 439 kts 272°
2026-04-25 12:52 59.39778 56.28310 33507 ft 440 kts 272°
2026-04-25 12:52 59.40327 56.16356 33514 ft 440 kts 272°
2026-04-25 12:53 59.40867 56.04388 33510 ft 440 kts 272°
2026-04-25 12:53 59.41395 55.92410 33509 ft 441 kts 272°
2026-04-25 12:54 59.41914 55.80404 33503 ft 441 kts 272°
2026-04-25 12:54 59.42421 55.68398 33500 ft 441 kts 272°
2026-04-25 12:55 59.42835 55.58414 33495 ft 441 kts 272°
2026-04-25 12:55 59.43404 55.44338 33498 ft 442 kts 272°
2026-04-25 12:56 59.43879 55.32300 33496 ft 442 kts 272°
2026-04-25 12:56 59.44344 55.20245 33497 ft 442 kts 272°
2026-04-25 12:57 59.44797 55.08200 33487 ft 442 kts 272°
2026-04-25 12:57 59.45236 54.96225 33485 ft 442 kts 272°
2026-04-25 12:58 59.45670 54.84092 33483 ft 442 kts 272°
2026-04-25 12:58 59.46087 54.72122 33478 ft 442 kts 272°
2026-04-25 12:59 59.46495 54.60067 33484 ft 442 kts 272°
2026-04-25 12:59 59.46893 54.48019 33483 ft 441 kts 272°
2026-04-25 13:00 59.47152 54.39957 33476 ft 441 kts 272°
2026-04-25 13:00 59.47653 54.23953 33472 ft 440 kts 271°
2026-04-25 13:01 59.48018 54.11939 33472 ft 440 kts 271°
2026-04-25 13:01 59.48369 53.99933 33470 ft 439 kts 271°
2026-04-25 13:02 59.48699 53.87932 33463 ft 439 kts 271°
2026-04-25 13:02 59.49016 53.75932 33459 ft 439 kts 271°
2026-04-25 13:03 59.49322 53.64013 33461 ft 439 kts 271°
2026-04-25 13:03 59.49620 53.52020 33460 ft 439 kts 271°
2026-04-25 13:04 59.49907 53.40012 33457 ft 439 kts 271°
2026-04-25 13:04 59.50140 53.30017 33454 ft 439 kts 271°
2026-04-25 13:05 59.50413 53.17989 33454 ft 440 kts 272°
2026-04-25 13:05 59.50950 53.06000 33452 ft 440 kts 275°
2026-04-25 13:06 59.51610 52.94003 33453 ft 440 kts 275°
2026-04-25 13:06 59.52241 52.81994 33449 ft 440 kts 274°
2026-04-25 13:07 59.52836 52.69984 33450 ft 440 kts 274°
2026-04-25 13:07 59.53412 52.57980 33449 ft 440 kts 274°
2026-04-25 13:08 59.53978 52.45959 33446 ft 440 kts 274°
2026-04-25 13:08 59.54529 52.34032 33446 ft 440 kts 274°
2026-04-25 13:09 59.55077 52.21948 33449 ft 439 kts 274°
2026-04-25 13:09 59.55608 52.10012 33449 ft 439 kts 274°
2026-04-25 13:10 59.56131 51.98028 33447 ft 439 kts 274°
2026-04-25 13:10 59.56651 51.86051 33452 ft 438 kts 274°
2026-04-25 13:11 59.57162 51.74085 33451 ft 438 kts 274°
2026-04-25 13:11 59.57661 51.62119 33448 ft 437 kts 274°
2026-04-25 13:12 59.58149 51.50159 33448 ft 437 kts 274°
2026-04-25 13:12 59.58546 51.40221 33448 ft 437 kts 274°
2026-04-25 13:13 59.59091 51.26259 33456 ft 436 kts 274°
2026-04-25 13:13 59.59545 51.14316 33453 ft 436 kts 274°
2026-04-25 13:14 59.59988 51.02391 33453 ft 436 kts 274°
2026-04-25 13:14 59.60419 50.90536 33446 ft 436 kts 274°
2026-04-25 13:15 59.60686 50.78589 33449 ft 435 kts 270°
2026-04-25 13:15 59.60627 50.66648 33450 ft 435 kts 269°
2026-04-25 13:16 59.60563 50.54714 33449 ft 434 kts 269°
2026-04-25 13:16 59.60529 50.42799 33447 ft 434 kts 270°
2026-04-25 13:17 59.60491 50.30889 33450 ft 433 kts 270°
2026-04-25 13:17 59.60480 50.18986 33457 ft 433 kts 270°
2026-04-25 13:18 59.60469 50.07107 33453 ft 433 kts 270°
2026-04-25 13:18 59.60445 49.95236 33456 ft 432 kts 270°
2026-04-25 13:19 59.60407 49.83449 33462 ft 432 kts 270°
2026-04-25 13:19 59.60366 49.73502 33464 ft 432 kts 270°
2026-04-25 13:20 59.60297 49.59712 33467 ft 432 kts 270°
2026-04-25 13:20 59.60227 49.47859 33475 ft 431 kts 270°
2026-04-25 13:21 59.60145 49.36012 33481 ft 431 kts 270°
2026-04-25 13:21 59.60053 49.24173 33480 ft 431 kts 270°
2026-04-25 13:22 59.59952 49.12358 33482 ft 430 kts 270°
2026-04-25 13:23 59.59781 48.94726 33487 ft 430 kts 270°
2026-04-25 13:23 59.59637 48.82949 33497 ft 429 kts 270°
2026-04-25 13:24 59.59479 48.71170 33494 ft 429 kts 270°
2026-04-25 13:24 59.59314 48.59401 33497 ft 428 kts 270°
2026-04-25 13:25 59.59141 48.47652 33499 ft 428 kts 269°
2026-04-25 13:25 59.58958 48.35925 33500 ft 427 kts 269°
2026-04-25 13:26 59.58768 48.24217 33505 ft 427 kts 269°
2026-04-25 13:26 59.58577 48.12511 33503 ft 426 kts 270°
2026-04-25 13:27 59.58378 48.00833 33508 ft 425 kts 270°
2026-04-25 13:27 59.58168 47.89168 33506 ft 425 kts 270°
2026-04-25 13:28 59.57947 47.77526 33508 ft 424 kts 269°
2026-04-25 13:28 59.57716 47.65886 33518 ft 424 kts 269°
2026-04-25 13:29 59.57475 47.54248 33521 ft 424 kts 269°
2026-04-25 13:29 59.57226 47.42707 33510 ft 424 kts 269°
2026-04-25 13:30 59.56834 47.25313 33531 ft 423 kts 269°
2026-04-25 13:31 59.56425 47.07959 33533 ft 422 kts 269°
2026-04-25 13:31 59.56144 46.96410 33539 ft 421 kts 269°
2026-04-25 13:32 59.55855 46.84884 33538 ft 420 kts 269°
2026-04-25 13:32 59.55555 46.73381 33535 ft 420 kts 269°
2026-04-25 13:33 59.55246 46.61891 33553 ft 419 kts 269°
2026-04-25 13:33 59.54927 46.50411 33545 ft 419 kts 269°
2026-04-25 13:34 59.54601 46.39030 33554 ft 418 kts 269°
2026-04-25 13:34 59.54262 46.27590 33552 ft 417 kts 269°
2026-04-25 13:35 59.53915 46.16169 33555 ft 417 kts 269°
2026-04-25 13:35 59.53558 46.04780 33559 ft 416 kts 268°
2026-04-25 13:36 59.53193 45.93403 33560 ft 416 kts 268°
2026-04-25 13:36 59.52817 45.82048 33565 ft 415 kts 268°
2026-04-25 13:37 59.52434 45.70718 33567 ft 414 kts 268°
2026-04-25 13:37 59.52042 45.59395 33570 ft 414 kts 268°
2026-04-25 13:38 59.51777 45.48104 33568 ft 412 kts 275°
2026-04-25 13:38 59.52454 45.37012 33574 ft 410 kts 278°
2026-04-25 13:39 59.53196 45.25869 33581 ft 410 kts 278°
2026-04-25 13:39 59.53902 45.14700 33578 ft 410 kts 278°
2026-04-25 13:40 59.54585 45.03532 33581 ft 411 kts 277°
2026-04-25 13:40 59.55257 44.92353 33590 ft 411 kts 277°
2026-04-25 13:41 59.55923 44.81157 33585 ft 411 kts 277°
2026-04-25 13:41 59.56608 44.69947 33591 ft 411 kts 278°
2026-04-25 13:42 59.57420 44.58768 33591 ft 412 kts 278°
2026-04-25 13:42 59.58236 44.47576 33594 ft 412 kts 278°
2026-04-25 13:43 59.59024 44.36432 33594 ft 413 kts 278°
2026-04-25 13:43 59.59804 44.25178 33601 ft 413 kts 278°
2026-04-25 13:44 59.60575 44.13916 33601 ft 414 kts 278°
2026-04-25 13:44 59.61336 44.02630 33602 ft 414 kts 278°
2026-04-25 13:45 59.62085 43.91331 33603 ft 415 kts 278°
2026-04-25 13:45 59.62821 43.80099 33605 ft 415 kts 277°
2026-04-25 13:46 59.63554 43.68771 33607 ft 415 kts 277°
2026-04-25 13:46 59.64277 43.57450 33607 ft 415 kts 277°
2026-04-25 13:47 59.64989 43.46134 33607 ft 415 kts 277°
2026-04-25 13:47 59.65691 43.34819 33611 ft 414 kts 277°
2026-04-25 13:48 59.66380 43.23561 33606 ft 413 kts 277°
2026-04-25 13:48 59.67060 43.12287 33610 ft 413 kts 277°
2026-04-25 13:49 59.67729 43.01020 33608 ft 412 kts 277°
2026-04-25 13:49 59.68389 42.89752 33607 ft 411 kts 277°
2026-04-25 13:50 59.69037 42.78531 33609 ft 411 kts 277°
2026-04-25 13:50 59.69676 42.67300 33610 ft 410 kts 277°
2026-04-25 13:51 59.70292 42.56062 33607 ft 410 kts 276°
2026-04-25 13:51 59.70871 42.44907 33610 ft 410 kts 276°
2026-04-25 13:52 59.71444 42.33688 33610 ft 410 kts 276°
2026-04-25 13:52 59.72008 42.22532 33609 ft 410 kts 276°
2026-04-25 13:53 59.72567 42.11286 33612 ft 410 kts 276°
2026-04-25 13:53 59.73117 42.00035 33609 ft 410 kts 276°
2026-04-25 13:54 59.73657 41.88774 33607 ft 410 kts 276°
2026-04-25 13:54 59.74189 41.77513 33610 ft 410 kts 276°
2026-04-25 13:55 59.74625 41.68144 33609 ft 410 kts 276°
2026-04-25 13:55 59.75207 41.56898 33604 ft 410 kts 279°
2026-04-25 13:56 59.76126 41.45741 33609 ft 409 kts 280°
2026-04-25 13:56 59.77091 41.34621 33602 ft 409 kts 280°
2026-04-25 13:57 59.78031 41.23488 33602 ft 409 kts 279°
2026-04-25 13:57 59.78944 41.12372 33604 ft 408 kts 279°
2026-04-25 13:58 59.79842 41.01240 33603 ft 408 kts 279°
2026-04-25 13:58 59.80729 40.90125 33603 ft 407 kts 279°
2026-04-25 13:59 59.81605 40.79012 33602 ft 407 kts 279°
2026-04-25 13:59 59.82472 40.67907 33597 ft 407 kts 279°
2026-04-25 14:00 59.83185 40.58674 33600 ft 406 kts 278°
2026-04-25 14:00 59.84176 40.45690 33598 ft 406 kts 278°
2026-04-25 14:01 59.85007 40.34662 33597 ft 406 kts 278°
2026-04-25 14:01 59.85835 40.23544 33600 ft 406 kts 278°
2026-04-25 14:02 59.86653 40.12430 33594 ft 406 kts 278°
2026-04-25 14:02 59.87463 40.01306 33590 ft 406 kts 278°
2026-04-25 14:03 59.88262 39.90185 33590 ft 405 kts 278°
2026-04-25 14:03 59.89051 39.79075 33596 ft 405 kts 278°
2026-04-25 14:04 59.89830 39.67966 33596 ft 405 kts 278°
2026-04-25 14:04 59.90596 39.56905 33587 ft 405 kts 277°
2026-04-25 14:05 59.91357 39.45786 33586 ft 405 kts 277°
2026-04-25 14:05 59.92109 39.34670 33589 ft 405 kts 277°
2026-04-25 14:06 59.92846 39.23558 33590 ft 404 kts 277°
2026-04-25 14:06 59.93569 39.12436 33593 ft 404 kts 277°
2026-04-25 14:07 59.94282 39.01318 33585 ft 404 kts 277°
2026-04-25 14:07 59.94986 38.90208 33584 ft 404 kts 277°
2026-04-25 14:08 59.95681 38.79088 33578 ft 403 kts 277°
2026-04-25 14:08 59.96367 38.67974 33581 ft 403 kts 276°
2026-04-25 14:09 59.97042 38.56862 33576 ft 403 kts 276°
2026-04-25 14:09 59.97709 38.45742 33573 ft 403 kts 276°
2026-04-25 14:10 59.98362 38.34685 33575 ft 403 kts 276°
2026-04-25 14:10 59.99010 38.23562 33570 ft 403 kts 276°
2026-04-25 14:11 59.99649 38.12433 33570 ft 403 kts 276°
2026-04-25 14:11 60.00278 38.01302 33566 ft 403 kts 276°
2026-04-25 14:12 60.00897 37.90189 33567 ft 402 kts 276°
2026-04-25 14:12 60.01508 37.79072 33561 ft 402 kts 275°
2026-04-25 14:13 60.02113 37.67966 33558 ft 401 kts 275°
2026-04-25 14:13 60.02718 37.56888 33556 ft 400 kts 275°
2026-04-25 14:14 60.03313 37.45825 33547 ft 400 kts 275°
2026-04-25 14:14 60.03844 37.35800 33552 ft 399 kts 275°
2026-04-25 14:15 60.04419 37.24768 33544 ft 399 kts 275°
2026-04-25 14:15 60.04984 37.13741 33542 ft 398 kts 275°
2026-04-25 14:16 60.05541 37.02732 33539 ft 397 kts 275°
2026-04-25 14:16 60.06078 36.91732 33538 ft 397 kts 274°
2026-04-25 14:17 60.06588 36.80721 33530 ft 397 kts 274°
2026-04-25 14:17 60.07088 36.69710 33529 ft 397 kts 274°
2026-04-25 14:18 60.07581 36.58682 33528 ft 398 kts 274°
2026-04-25 14:18 60.08068 36.47634 33525 ft 398 kts 274°
2026-04-25 14:19 60.08546 36.36576 33519 ft 399 kts 274°
2026-04-25 14:19 60.09015 36.25492 33517 ft 400 kts 274°
2026-04-25 14:20 60.09478 36.14388 33511 ft 400 kts 274°
2026-04-25 14:20 60.09931 36.03252 33510 ft 401 kts 273°
2026-04-25 14:21 60.10381 35.92110 33510 ft 401 kts 273°
2026-04-25 14:21 60.10827 35.80946 33503 ft 402 kts 273°
2026-04-25 14:22 60.11261 35.69839 33506 ft 402 kts 273°
2026-04-25 14:22 60.11688 35.58663 33498 ft 402 kts 273°
2026-04-25 14:23 60.12106 35.47488 33495 ft 402 kts 273°
2026-04-25 14:23 60.12515 35.36317 33490 ft 402 kts 273°
2026-04-25 14:24 60.12914 35.25146 33489 ft 401 kts 273°
2026-04-25 14:24 60.13304 35.13971 33486 ft 401 kts 272°
2026-04-25 14:25 60.13687 35.02807 33483 ft 401 kts 272°
2026-04-25 14:25 60.14061 34.91636 33484 ft 401 kts 272°
2026-04-25 14:26 60.14426 34.80459 33487 ft 402 kts 272°
2026-04-25 14:26 60.14783 34.69243 33475 ft 403 kts 272°
2026-04-25 14:27 60.15131 34.58005 33479 ft 403 kts 272°
2026-04-25 14:27 60.15470 34.46771 33468 ft 400 kts 272°
2026-04-25 14:27 60.15632 34.41283 33451 ft 387 kts 272°
2026-04-25 14:28 60.15788 34.35962 33455 ft 377 kts 272°
2026-04-25 14:28 60.16086 34.25477 33315 ft 380 kts 272°
2026-04-25 14:28 60.16231 34.20228 33027 ft 380 kts 272°
2026-04-25 14:29 60.16376 34.14941 32589 ft 377 kts 272°
2026-04-25 14:29 60.16518 34.09723 32192 ft 372 kts 272°
2026-04-25 14:29 60.16655 34.04578 31814 ft 366 kts 271°
2026-04-25 14:29 60.16789 33.99509 31399 ft 362 kts 271°
2026-04-25 14:30 60.16919 33.94492 31008 ft 357 kts 271°
2026-04-25 14:30 60.17169 33.84642 30158 ft 350 kts 271°
2026-04-25 14:30 60.17289 33.79781 29735 ft 347 kts 271°
2026-04-25 14:31 60.17407 33.74952 29266 ft 344 kts 271°
2026-04-25 14:31 60.17522 33.70177 28814 ft 340 kts 271°
2026-04-25 14:31 60.17634 33.65452 28369 ft 336 kts 271°
2026-04-25 14:31 60.17742 33.60800 27950 ft 331 kts 271°
2026-04-25 14:32 60.17848 33.56203 27530 ft 327 kts 271°
2026-04-25 14:32 60.17951 33.51662 27111 ft 324 kts 271°
2026-04-25 14:32 60.18051 33.47169 26694 ft 320 kts 271°
2026-04-25 14:32 60.18149 33.42734 26298 ft 317 kts 271°
2026-04-25 14:33 60.18245 33.38312 25886 ft 314 kts 271°
2026-04-25 14:33 60.18338 33.33942 25485 ft 312 kts 271°
2026-04-25 14:33 60.18431 33.29606 25081 ft 310 kts 271°
2026-04-25 14:33 60.18519 33.25307 24683 ft 307 kts 271°
2026-04-25 14:34 60.18606 33.21028 24292 ft 305 kts 271°
2026-04-25 14:34 60.18581 33.16779 23902 ft 303 kts 264°
2026-04-25 14:34 60.18222 33.12661 23524 ft 301 kts 256°
2026-04-25 14:34 60.17660 33.08580 23145 ft 300 kts 255°
2026-04-25 14:35 60.17079 33.04564 22714 ft 298 kts 255°
2026-04-25 14:35 60.16498 33.00584 22291 ft 296 kts 255°
2026-04-25 14:35 60.15924 32.96637 21913 ft 293 kts 255°
2026-04-25 14:35 60.15365 32.92782 21545 ft 290 kts 255°
2026-04-25 14:36 60.14807 32.88915 21160 ft 288 kts 255°
2026-04-25 14:36 60.14252 32.85072 20799 ft 285 kts 255°
2026-04-25 14:36 60.13703 32.81269 20427 ft 283 kts 254°
2026-04-25 14:36 60.13158 32.77497 20057 ft 281 kts 254°
2026-04-25 14:37 60.12615 32.73744 19695 ft 279 kts 254°
2026-04-25 14:37 60.12074 32.70013 19337 ft 277 kts 254°
2026-04-25 14:37 60.11537 32.66312 18989 ft 275 kts 254°
2026-04-25 14:37 60.11002 32.62636 18638 ft 274 kts 253°
2026-04-25 14:38 60.10468 32.58975 18288 ft 273 kts 253°
2026-04-25 14:38 60.09935 32.55327 17938 ft 272 kts 253°
2026-04-25 14:38 60.09402 32.51688 17566 ft 271 kts 253°
2026-04-25 14:38 60.08872 32.48074 17186 ft 270 kts 253°
2026-04-25 14:39 60.08344 32.44482 16842 ft 267 kts 253°
2026-04-25 14:39 60.07821 32.40928 16480 ft 265 kts 253°
2026-04-25 14:39 60.07302 32.37411 16155 ft 262 kts 253°
2026-04-25 14:39 60.06785 32.33921 15807 ft 260 kts 252°
2026-04-25 14:40 60.06271 32.30459 15468 ft 258 kts 252°
2026-04-25 14:40 60.05740 32.27044 15175 ft 256 kts 251°
2026-04-25 14:40 60.05161 32.23632 14897 ft 263 kts 250°
2026-04-25 14:40 60.04555 32.20113 14603 ft 271 kts 250°
2026-04-25 14:41 60.03942 32.16563 14289 ft 276 kts 250°
2026-04-25 14:41 60.03313 32.12917 13970 ft 277 kts 250°
2026-04-25 14:41 60.02687 32.09278 13635 ft 276 kts 250°
2026-04-25 14:41 60.02065 32.05666 13320 ft 274 kts 250°
2026-04-25 14:42 60.01447 32.02074 12968 ft 272 kts 250°
2026-04-25 14:42 60.01239 32.00870 12862 ft 271 kts 250°
2026-04-25 14:42 60.00231 31.95029 12346 ft 264 kts 250°
2026-04-25 14:42 59.99635 31.91582 12042 ft 261 kts 250°
2026-04-25 14:43 59.99043 31.88162 11740 ft 260 kts 250°
2026-04-25 14:43 59.98453 31.84759 11447 ft 259 kts 250°
2026-04-25 14:43 59.98063 31.82514 11242 ft 259 kts 250°
2026-04-25 14:43 59.97474 31.79120 10939 ft 258 kts 250°
2026-04-25 14:44 59.96886 31.75749 10640 ft 256 kts 250°
2026-04-25 14:44 59.96299 31.72394 10353 ft 255 kts 250°
2026-04-25 14:44 59.95717 31.69072 10070 ft 253 kts 250°
2026-04-25 14:44 59.95138 31.65769 9785 ft 251 kts 250°
2026-04-25 14:45 59.94756 31.63592 9594 ft 251 kts 250°
2026-04-25 14:45 59.93986 31.59216 9202 ft 249 kts 250°
2026-04-25 14:45 59.93412 31.55960 8895 ft 248 kts 250°
2026-04-25 14:45 59.92843 31.52734 8616 ft 246 kts 250°
2026-04-25 14:46 59.92274 31.49513 8328 ft 245 kts 249°
2026-04-25 14:46 59.91706 31.46305 8031 ft 246 kts 249°
2026-04-25 14:46 59.91138 31.43102 7754 ft 246 kts 250°
2026-04-25 14:46 59.90567 31.39886 7457 ft 245 kts 249°
2026-04-25 14:47 59.90000 31.36696 7184 ft 244 kts 249°
2026-04-25 14:47 59.89623 31.34581 6997 ft 244 kts 249°
2026-04-25 14:47 59.88867 31.30337 6624 ft 243 kts 249°
2026-04-25 14:47 59.88302 31.27173 6356 ft 242 kts 249°
2026-04-25 14:48 59.87738 31.24024 6089 ft 241 kts 249°
2026-04-25 14:48 59.87173 31.20877 5804 ft 241 kts 249°
2026-04-25 14:48 59.86609 31.17739 5511 ft 241 kts 249°
2026-04-25 14:48 59.86066 31.14606 5282 ft 237 kts 251°
2026-04-25 14:49 59.85593 31.11534 5080 ft 233 kts 251°
2026-04-25 14:49 59.85131 31.08467 4882 ft 230 kts 251°
2026-04-25 14:49 59.84673 31.05435 4696 ft 229 kts 251°
2026-04-25 14:49 59.84209 31.02383 4514 ft 232 kts 251°
2026-04-25 14:50 59.83737 30.99295 4324 ft 234 kts 251°
2026-04-25 14:50 59.83273 30.96273 4137 ft 234 kts 251°
2026-04-25 14:50 59.82799 30.93185 3965 ft 230 kts 250°
2026-04-25 14:50 59.82336 30.90177 3727 ft 226 kts 250°
2026-04-25 14:51 59.81878 30.87214 3525 ft 220 kts 250°
2026-04-25 14:51 59.81436 30.84351 3297 ft 216 kts 250°
2026-04-25 14:51 59.80996 30.81517 3054 ft 213 kts 249°
2026-04-25 14:51 59.80558 30.78711 2761 ft 213 kts 249°
2026-04-25 14:52 59.80090 30.75932 2549 ft 212 kts 242°
2026-04-25 14:52 59.79414 30.73327 2508 ft 211 kts 238°
2026-04-25 14:52 59.78712 30.70823 2491 ft 204 kts 238°
2026-04-25 14:52 59.78260 30.69201 2485 ft 201 kts 238°
2026-04-25 14:53 59.77369 30.65976 2490 ft 199 kts 238°
2026-04-25 14:53 59.76703 30.63550 2500 ft 201 kts 239°
2026-04-25 14:53 59.76029 30.61091 2497 ft 204 kts 239°
2026-04-25 14:53 59.75350 30.58609 2491 ft 206 kts 239°
2026-04-25 14:54 59.74912 30.55916 2478 ft 211 kts 268°
2026-04-25 14:54 59.75346 30.53157 2507 ft 207 kts 285°
2026-04-25 14:54 59.75784 30.50559 2461 ft 192 kts 279°
2026-04-25 14:54 59.76133 30.48101 2238 ft 179 kts 278°
2026-04-25 14:55 59.76353 30.46563 2077 ft 171 kts 278°
2026-04-25 14:55 59.76778 30.43647 1807 ft 157 kts 277°
2026-04-25 14:55 59.77071 30.41646 1559 ft 146 kts 278°
2026-04-25 14:55 59.77348 30.39731 1359 ft 149 kts 278°
2026-04-25 14:56 59.77640 30.37746 1126 ft 150 kts 279°
2026-04-25 14:56 59.77928 30.35793 904 ft 145 kts 280°
2026-04-25 14:56 59.78215 30.33844 692 ft 146 kts 281°
2026-04-25 14:56 59.78491 30.31919 487 ft 147 kts 281°
2026-04-25 14:57 59.78779 30.29957 307 ft 150 kts 283°
2026-04-25 14:57 59.79080 30.27968 111 ft 151 kts 282°
2026-04-25 14:57 59.79354 30.26086 91 ft 128 kts 285°
2026-04-25 14:57 59.79566 30.24687 87 ft 93 kts 286°
2026-04-25 14:58 59.79719 30.23664 87 ft 55 kts 286°
2026-04-25 14:58 59.79847 30.23170 85 ft 36 kts 314°
2026-04-25 14:58 59.79953 30.23032 79 ft 14 kts 19°
2026-04-25 14:58 59.79964 30.23200 82 ft 13 kts 106°
2026-04-25 14:59 59.79939 30.23372 79 ft 13 kts 106°
2026-04-25 14:59 59.79915 30.23539 81 ft 12 kts 106°
2026-04-25 14:59 59.79891 30.23699 86 ft 12 kts 107°
2026-04-25 14:59 59.79868 30.23852 88 ft 12 kts 105°
2026-04-25 15:00 59.79845 30.24007 85 ft 12 kts 107°
2026-04-25 15:00 59.79824 30.24149 89 ft 11 kts 106°
2026-04-25 15:00 59.79802 30.24295 89 ft 11 kts 107°
2026-04-25 15:00 59.79781 30.24437 88 ft 11 kts 107°
2026-04-25 15:01 59.79761 30.24576 87 ft 10 kts 106°
2026-04-25 15:01 59.79738 30.24726 89 ft 13 kts 107°
2026-04-25 15:01 59.79708 30.24931 89 ft 18 kts 106°
2026-04-25 15:01 59.79674 30.25161 87 ft 17 kts 106°
2026-04-25 15:02 59.79642 30.25382 88 ft 16 kts 105°
2026-04-25 15:02 59.79610 30.25594 91 ft 16 kts 107°
2026-04-25 15:02 59.79582 30.25788 91 ft 11 kts 106°
2026-04-25 15:02 59.79563 30.25937 87 ft 11 kts 87°
2026-04-25 15:03 59.79621 30.26015 86 ft 11 kts 17°
2026-04-25 15:03 59.79687 30.26079 86 ft 10 kts 25°
2026-04-25 15:03 59.79752 30.26118 90 ft 3 kts 15°
2026-04-25 15:03 59.79770 30.26130 88 ft 3 kts 24°
2026-04-25 15:04 59.79783 30.26157 89 ft 3 kts 63°
2026-04-25 15:04 59.79780 30.26192 87 ft 3 kts 108°
2026-04-25 15:04 59.79775 30.26226 86 ft 3 kts 107°
2026-04-25 15:04 59.79770 30.26259 91 ft 2 kts 107°
2026-04-25 15:05 59.79766 30.26283 88 ft 1 kts 106°
2026-04-25 15:05 59.79765 30.26289 87 ft 0 kts 106°